Location: *
(46.1833°N, 22.7667°E)
Time: 06:49:59
(UTC+00:00)

Meteor 2-5 Rocket - Pass Details

Date: 17 September 2019
Orbit: 834 x 911 km, 81.2° (Epoch: 18 October)

Event Time Altitude Azimuth Distance (km) Brightness Sun altitude
Rises 18:10:41 0° 353° (N) 3,476 7.3 -16.6°
Reaches altitude 10° 18:13:13 10° 360° (N) 2,546 6.5 -17.0°
Maximum altitude 18:18:48 46° 73° (ENE) 1,181 4.1 -17.9°
Enters shadow 18:21:16 30° 126° (SE) 1,554 4.5 -18.2°
